[[{"header":{"parameterUnit":"m.s-1","parameterCategory":1,"la1":30.2991,"la2":30.254,"lo1":-89.0895,"lo2":-89.0444,"dy":0.0017,"dx":0.0017,"nx":28,"ny":28,"refTime":"2024-09-29T03:00:00:Z","depth":0,"parameterNumber":2,"parameterNumberName":"U-component_of_WINDS"},"data":[0,0,0,0,0,0,0,0,0,0,0,0,0,0,0,0,0,0,0,0,0,0,0,0,0,0,0,0,0,0,0,0,0,0,0,0,0,0,0,0,0,0,0,0,0,0,0,0,0,0,0,0,0,0,0,0,0,0,2.4729,2.473,0,2.4832,2.4834,2.4835,2.4846,2.4845,2.4844,2.4843,2.4955,2.4959,2.4963,0,0,0,0,0,0,0,0,0,0,0,0,0,2.4547,2.455,2.4729,2.473,2.4731,2.4832,2.4834,2.4835,2.4846,2.4845,2.4843,2.4842,2.4954,2.4958,2.4963,0,0,0,0,0,0,0,0,0,0,0,0,0,2.4636,2.4551,2.4728,2.4749,2.4752,2.4832,2.4834,2.4835,2.4846,2.4845,2.4843,2.4842,2.4952,2.4958,2.4964,2.5033,0,0,2.4982,2.4985,0,0,0,0,0,0,0,0,2.4631,2.4643,2.4744,2.4747,2.4751,2.4824,2.4811,2.4902,2.4847,2.4811,2.4843,2.4841,2.4913,2.4922,2.4945,2.5038,2.5043,2.4982,2.4986,2.4989,2.499,0,0,0,0,0,0,0,2.4625,2.4638,2.477,2.4746,2.475,2.4755,2.4766,2.4828,2.487,2.4814,2.4815,2.4826,2.4915,2.494,2.4948,2.5044,2.4982,2.4988,2.4991,2.4994,2.5202,2.5204,0,0,0,0,0,0,2.4614,2.4633,2.4767,2.4773,2.4685,2.476,2.4772,2.4803,2.4869,2.4878,2.4828,2.4827,2.493,2.4941,2.4952,2.5039,2.4989,2.4994,2.4998,2.52,2.5202,2.5205,0,0,0,0,0,0,2.461,2.4626,2.4762,2.4703,2.4721,2.4764,2.4799,2.4805,2.483,2.488,2.4888,2.4845,2.4929,2.4944,2.5013,2.5043,2.4997,2.5002,2.5198,2.5201,2.5204,2.5213,0,0,0,0,0,0,2.4605,2.4624,2.4649,2.4704,2.4724,2.4819,2.4801,2.4809,2.484,2.4839,2.4898,2.4906,2.4929,2.5004,2.5019,2.5051,2.5007,2.5195,2.5199,2.5203,2.521,2.5216,2.522,0,0,0,0,0,2.4598,2.4648,2.465,2.4666,2.4756,2.4821,2.4833,2.4856,2.4842,2.4869,2.4901,2.4905,2.5037,2.5011,2.5028,2.5062,2.5194,2.5198,2.5202,2.5208,2.5214,2.522,0,0,0,0,0,0,2.4597,2.4656,2.4659,2.4727,2.4769,2.4822,2.4857,2.4862,2.491,2.4908,2.4937,2.495,2.5019,2.5047,2.5017,2.5134,2.5114,2.5122,2.5113,2.512,2.5125,2.5117,2.5012,0,0,0,0,0,2.4605,2.4651,2.47,2.4756,2.4777,2.4813,2.4842,2.4857,2.4902,2.492,2.4957,2.5003,2.5055,2.5089,2.5139,2.5214,2.5229,2.5246,2.5251,2.5255,2.5262,2.5307,2.5316,2.5219,2.5219,2.5219,0,0,2.4622,2.4659,2.4687,2.4757,2.4791,2.484,2.4828,2.488,2.4918,2.4929,2.4996,2.5025,2.5078,2.5151,2.5185,2.5177,2.5292,2.5261,2.5264,2.5269,2.5312,2.5321,2.533,2.5222,2.5221,2.5221,0,0,2.4677,2.4709,2.476,2.4795,2.4846,2.487,2.4882,2.4936,2.4955,2.5022,2.5032,2.5079,2.5167,2.5205,2.5236,2.5308,2.5314,2.5324,2.5352,2.5395,2.5403,2.541,2.5438,2.5447,2.5331,2.5331,2.5331,0,2.4692,2.4765,2.4786,2.4839,2.4871,2.4881,2.4935,2.4968,2.5034,2.5057,2.5046,2.5159,2.5195,2.5278,2.5296,2.5319,2.5337,2.5318,2.5399,2.5407,2.5414,2.5441,2.5451,2.5332,2.5332,2.5331,2.5331,0,2.4782,2.4832,2.4868,2.493,2.4965,2.5018,2.5051,2.5085,2.5097,2.5123,2.5193,2.5237,2.5298,2.5319,2.5331,2.5404,2.5398,2.5393,2.5375,2.5423,2.545,2.546,2.5333,2.5333,2.5332,2.5332,0,0,2.484,2.4913,2.4926,2.4956,2.5013,2.5054,2.5109,2.5166,2.5196,2.5242,2.529,2.5366,2.5362,2.5397,2.5414,2.5451,2.5509,2.5443,2.5444,2.5455,2.5596,2.56,2.5611,2.5513,2.5515,2.5516,2.5592,0,2.4903,2.4998,2.5021,2.5104,2.5152,2.5164,2.5212,2.5254,2.528,2.5327,2.5357,2.5411,2.5401,2.5422,2.546,2.5494,2.5538,2.5488,2.5561,2.5563,2.5548,2.5625,2.5629,2.5698,2.5602,2.5604,2.5605,0,2.499,2.5037,2.5124,2.5177,2.5199,2.5241,2.5297,2.5341,2.539,2.5407,2.5447,2.546,2.5521,2.5498,2.5583,2.5549,2.558,2.5602,2.5605,2.5614,2.5588,2.5638,2.5721,2.5732,2.5621,2.562,2.5618,0,2.5027,2.5111,2.5175,2.5199,2.5262,2.5292,2.5321,2.5368,2.5402,2.5452,2.5475,2.5531,2.5563,2.5608,2.5637,2.5618,2.5721,2.57,2.5739,2.5739,2.5761,2.576,2.5852,2.5778,2.5778,2.5778,2.5778,0,2.5096,2.515,2.5192,2.5231,2.5293,2.5319,2.538,2.5408,2.5451,2.5498,2.5512,2.5556,2.5592,2.5642,2.5666,2.5734,2.5748,2.5765,2.5772,2.5765,2.5763,2.5787,2.5784,2.5781,2.578,2.578,2.5779,0,2.5147,2.5177,2.5248,2.5302,2.5317,2.536,2.5408,2.5448,2.5475,2.5535,2.555,2.5593,2.5653,2.5687,2.5763,2.5779,2.5856,2.5859,2.5839,2.5842,2.5879,2.5876,2.5992,2.6009,2.5922,2.5923,2.5923,0,2.5191,2.5232,2.5291,2.5323,2.5351,2.5402,2.5437,2.5465,2.5501,2.5561,2.5595,2.5655,2.5705,2.5801,2.5841,2.59,2.5905,2.5942,2.5914,2.5907,2.5908,2.5906,2.5912,2.5947,2.5948,2.5948,2.5949,0,2.5265,2.5278,2.5327,2.5381,2.5422,2.5466,2.5511,2.5537,2.5573,2.5613,2.5674,2.5712,2.579,2.5851,2.5913,2.5945,2.5954,2.5957,2.597,2.5964,2.5952,2.5961,2.5854,2.5955,2.5954,2.5954,2.5953,2.5953,2.5315,2.5354,2.5401,2.5456,2.5492,2.5533,2.5574,2.5606,2.5656,2.572,2.5734,2.5799,2.585,2.5934,2.5968,2.6021,2.6015,2.6032,2.6037,2.6041,2.6044,2.5942,2.6032,2.6032,2.6032,2.6032,2.6032,0,2.5393,2.5424,2.5473,2.5535,2.5578,2.5581,2.5631,2.5668,2.5724,2.5769,2.5818,2.5889,2.5949,2.5993,2.6055,2.6089,2.6095,2.6105,2.6103,2.6111,2.6045,2.6029,2.6099,2.6099,2.6099,2.6099,2.6099,2.6099,2.5438,2.5503,2.5522,2.5607,2.5639,2.5701,2.5729,2.5769,2.5806,2.5884,2.5933,2.5961,2.6007,2.6072,2.6128,2.614,2.6163,2.6172,2.6185,2.6123,2.6116,2.6109,2.6094,2.6177,2.6177,2.6248,2.6248,2.6249]},{"header":{"parameterUnit":"m.s-1","parameterCategory":1,"la1":30.2991,"la2":30.254,"lo1":-89.0895,"lo2":-89.0444,"dy":0.0017,"dx":0.0017,"nx":28,"ny":28,"refTime":"2024-09-29T03:00:00:Z","depth":0,"parameterNumber":3,"parameterNumberName":"V-component_of_WINDS"},"data":[0,0,0,0,0,0,0,0,0,0,0,0,0,0,0,0,0,0,0,0,0,0,0,0,0,0,0,0,0,0,0,0,0,0,0,0,0,0,0,0,0,0,0,0,0,0,0,0,0,0,0,0,0,0,0,0,0,0,1.3959,1.396,0,1.4029,1.403,1.4031,1.4066,1.4066,1.4066,1.4067,1.4137,1.4139,1.4141,0,0,0,0,0,0,0,0,0,0,0,0,0,1.3856,1.3857,1.3959,1.396,1.3961,1.4029,1.403,1.4031,1.4066,1.4066,1.4066,1.4067,1.4137,1.4139,1.4141,0,0,0,0,0,0,0,0,0,0,0,0,0,1.391,1.3858,1.3959,1.3987,1.399,1.4029,1.403,1.4031,1.4066,1.4066,1.4066,1.4067,1.4136,1.4138,1.4141,1.4157,0,0,1.415,1.4151,0,0,0,0,0,0,0,0,1.3907,1.3914,1.3982,1.3985,1.3989,1.4039,1.4019,1.4073,1.4066,1.4037,1.4067,1.4067,1.4104,1.411,1.4123,1.416,1.4163,1.415,1.4152,1.4153,1.4154,0,0,0,0,0,0,0,1.3903,1.3911,1.3987,1.3983,1.3987,1.3995,1.4003,1.403,1.407,1.404,1.4043,1.4051,1.4106,1.412,1.4125,1.4164,1.415,1.4152,1.4154,1.4155,1.4217,1.4217,0,0,0,0,0,0,1.3895,1.3908,1.3985,1.3989,1.3947,1.3997,1.4006,1.4023,1.407,1.4077,1.405,1.4052,1.4115,1.4121,1.4127,1.4148,1.4153,1.4155,1.4157,1.4217,1.4217,1.4217,0,0,0,0,0,0,1.3893,1.3902,1.3982,1.3949,1.396,1.3999,1.4018,1.4024,1.4038,1.4077,1.4085,1.4057,1.4115,1.4123,1.4149,1.4151,1.4157,1.4159,1.4217,1.4217,1.4217,1.4191,0,0,0,0,0,0,1.389,1.3901,1.3908,1.3949,1.3962,1.4003,1.4018,1.4026,1.4043,1.4045,1.4086,1.4092,1.4116,1.4145,1.4152,1.4155,1.4161,1.4217,1.4217,1.4217,1.4192,1.419,1.4189,0,0,0,0,0,1.3886,1.3898,1.3908,1.3917,1.3971,1.4003,1.401,1.4038,1.4043,1.405,1.4075,1.4091,1.415,1.4147,1.4155,1.416,1.4217,1.4217,1.4217,1.4193,1.419,1.4189,0,0,0,0,0,0,1.3855,1.3904,1.3916,1.3941,1.3968,1.4009,1.4019,1.4035,1.406,1.4062,1.4094,1.4103,1.4126,1.4145,1.4142,1.4177,1.4185,1.4187,1.4163,1.4162,1.416,1.4155,1.4164,0,0,0,0,0,1.3852,1.3874,1.3915,1.3933,1.3946,1.398,1.3995,1.4013,1.4042,1.4054,1.4081,1.4108,1.4133,1.4148,1.4173,1.4195,1.4203,1.4201,1.42,1.4198,1.4199,1.4211,1.4211,1.4218,1.4218,1.4218,0,0,1.3844,1.3873,1.3885,1.3928,1.3951,1.3972,1.3989,1.4012,1.4028,1.4057,1.4083,1.4104,1.4136,1.416,1.4172,1.4177,1.4199,1.4198,1.4197,1.4199,1.4211,1.421,1.421,1.4218,1.4218,1.4218,0,0,1.3842,1.3866,1.3884,1.3906,1.394,1.3963,1.3967,1.4006,1.402,1.4047,1.4069,1.4088,1.413,1.4152,1.4169,1.4173,1.4188,1.418,1.4171,1.4183,1.4182,1.4182,1.4183,1.4183,1.4181,1.4181,1.4181,0,1.3828,1.3862,1.3891,1.3912,1.3929,1.3956,1.3974,1.3994,1.4035,1.4046,1.4051,1.4103,1.4127,1.4156,1.4157,1.4169,1.4174,1.4176,1.418,1.418,1.418,1.4181,1.4182,1.4179,1.418,1.418,1.418,0,1.3843,1.3866,1.3876,1.3915,1.3933,1.3953,1.3983,1.3999,1.4015,1.4037,1.4063,1.4092,1.4123,1.4131,1.4147,1.4161,1.4163,1.4174,1.4183,1.4178,1.4179,1.418,1.4178,1.4178,1.4178,1.4179,0,0,1.3825,1.3878,1.3881,1.3898,1.3937,1.3955,1.3975,1.4005,1.4017,1.4044,1.4061,1.4095,1.4105,1.4123,1.4142,1.4152,1.4153,1.4161,1.4162,1.4158,1.4169,1.4161,1.4161,1.4163,1.4163,1.4163,1.4166,0,1.3828,1.3865,1.3891,1.3918,1.3939,1.3964,1.3981,1.4007,1.4027,1.4047,1.407,1.4093,1.4104,1.4115,1.4126,1.415,1.4155,1.415,1.4179,1.418,1.417,1.4162,1.4154,1.4156,1.4167,1.4167,1.4168,0,1.3837,1.3862,1.3891,1.3927,1.3937,1.3952,1.3981,1.4,1.4029,1.4043,1.4063,1.4082,1.4104,1.411,1.414,1.4136,1.4149,1.4162,1.4163,1.4167,1.4173,1.4166,1.4157,1.4157,1.4169,1.4169,1.4169,0,1.382,1.3861,1.3884,1.3898,1.394,1.395,1.3968,1.3997,1.4013,1.4038,1.4049,1.4076,1.409,1.4111,1.4136,1.4139,1.4163,1.4172,1.4175,1.4174,1.4179,1.4178,1.4172,1.4187,1.4187,1.4187,1.4187,0,1.3821,1.3838,1.3877,1.3891,1.391,1.3939,1.3957,1.3977,1.4002,1.402,1.4043,1.4059,1.4091,1.4111,1.4131,1.4152,1.4159,1.417,1.4175,1.4168,1.4167,1.4178,1.4178,1.4187,1.4187,1.4187,1.4187,0,1.3806,1.3833,1.3859,1.3896,1.3906,1.3919,1.395,1.3964,1.3985,1.4007,1.4014,1.4047,1.4071,1.4098,1.4132,1.4145,1.4165,1.4172,1.4155,1.4158,1.4159,1.4159,1.416,1.4161,1.4175,1.4175,1.4175,0,1.3805,1.3818,1.3857,1.387,1.3887,1.3909,1.3925,1.3953,1.3969,1.4002,1.4012,1.4038,1.406,1.4098,1.4124,1.415,1.4158,1.4157,1.4162,1.4154,1.4158,1.4157,1.4158,1.4155,1.4155,1.4155,1.4154,0,1.38,1.3812,1.3835,1.3862,1.388,1.3903,1.3926,1.3936,1.3968,1.3985,1.401,1.4027,1.4061,1.4086,1.4114,1.4133,1.4149,1.4152,1.4154,1.4147,1.4137,1.4142,1.4151,1.4152,1.4153,1.4153,1.4153,1.4153,1.3792,1.3805,1.3833,1.3857,1.3878,1.3899,1.3913,1.3936,1.3957,1.3987,1.4002,1.4026,1.4054,1.4093,1.4111,1.413,1.4135,1.4138,1.4139,1.4139,1.4137,1.4133,1.4135,1.4136,1.4136,1.4136,1.4136,0,1.3788,1.3807,1.3829,1.3861,1.3879,1.3892,1.3919,1.3933,1.3955,1.3979,1.4,1.4028,1.4052,1.408,1.4106,1.4116,1.4124,1.4122,1.4122,1.4125,1.4131,1.4127,1.4115,1.4115,1.4115,1.4115,1.4115,1.4115,1.3788,1.381,1.3826,1.3857,1.3877,1.3901,1.3915,1.3934,1.3953,1.3983,1.4004,1.4021,1.4047,1.4074,1.4097,1.4104,1.4113,1.4108,1.4118,1.4123,1.4125,1.4127,1.4123,1.411,1.411,1.4111,1.4111,1.4111]}]]